Flag for Germany Weather past 2 weeks in Königswinter, North Rhine-Westphalia, Germany

Now
N/A

Passing clouds.


Feels Like: N/A
Forecast: 37 / 45 °F
Wind: 3 mph from North

Location: Bonn-Hangelar

Current Time: Dec 20, 2014 at 3:28:08 PM

Latest Report: Dec 20, 2014 at 3:00 PM


Visibility: 1 mi

Pressure: N/A

Humidity: N/A

Dew point: N/A

Location of KönigswinterLocation

Historic Weather in Königswinter — Graph

°F

Königswinter temperature yesterday

Maximum temperature yesterday: 52 °F (at 1:00 AM)
Minimum temperature yesterday: 40 °F (at 10:00 PM)
Average temperature yesterday: 47 °F

Past Weeks' High & Low Weather Summary

 TemperatureHumidityPressure
High53 °F (Dec 18, 6:00 PM)100% (Dec 6, 2:00 AM)30.40 "Hg (Dec 6, 2:00 AM)
Low32 °F (Dec 8, 7:00 PM)73% (Dec 10, 3:00 AM)29.41 "Hg (Dec 12, 4:00 PM)
Average41 °F93%29.99 "Hg
* Reported Dec 5 2:00 PM — Dec 20 2:00 PM, Königswinter, Weather by CustomWeather, © 2014

Note: Actual official high and low records may vary slightly from our data, if they occured in-between our weather recording intervals... More about our weather records

Advertising

Königswinter weather history for previous 24 hours

 ConditionsComfort  
Time TempWeatherWind HumidityBarometerVisibility
2:00 PM
Dec 20
43 °FSprinkles. Overcast.14 mph83%30.16 "Hg22 mi
1:00 PM42 °FOvercast.14 mph83%30.17 "Hg25 mi
12:00 PM42 °FOvercast.14 mph83%30.18 "Hg25 mi
11:00 AM42 °FOvercast.14 mph84%30.19 "Hg25 mi
10:00 AM41 °FOvercast.10 mph86%30.20 "Hg25 mi
9:00 AM41 °FOvercast.12 mph86%30.20 "Hg25 mi
8:00 AM40 °FPassing clouds.9 mph89%30.20 "Hg37 mi
7:00 AM40 °FPassing clouds.8 mph87%30.21 "Hg37 mi
6:00 AM40 °FPassing clouds.9 mph88%30.21 "Hg37 mi
5:00 AM39 °FClear.8 mph88%30.20 "Hg22 mi
4:00 AM39 °FClear.8 mph88%30.21 "Hg19 mi
3:00 AM40 °FClear.9 mph86%30.21 "Hg22 mi
2:00 AM40 °FClear.9 mph85%30.21 "Hg22 mi
1:00 AM40 °FPassing clouds.10 mph85%30.19 "Hg25 mi
12:00 AM41 °FPassing clouds.10 mph83%30.17 "Hg25 mi
11:00 PM
Dec 19
41 °FPassing clouds.9 mph86%30.16 "Hg25 mi
10:00 PM40 °FClear.8 mph89%30.15 "Hg22 mi
9:00 PM41 °FPassing clouds.8 mph92%30.13 "Hg28 mi
8:00 PM41 °FPassing clouds.8 mph90%30.10 "Hg28 mi
7:00 PM42 °FPassing clouds.8 mph89%30.06 "Hg28 mi
6:00 PM43 °FPassing clouds.7 mph91%30.03 "Hg28 mi
5:00 PM44 °FLow clouds.7 mph93%30.00 "Hg25 mi
4:00 PM45 °FDrizzle. Low clouds.6 mph98%29.98 "Hg7 mi
3:00 PM45 °FLight rain. Low clouds.7 mph98%29.95 "Hg12 mi
Weather by CustomWeather, © 2014

See weather overviewHow to use our weather pages